GFSNW_850_temp_201.txt.gz
Temp
-1 -1 -0 -0 -0 0 -0 -1 -1 0 1 -0 -0 0 2 4 5 5 6 10 11 11 11 11 11 12 14 15 15 13 15 11 10 14 14 15 16 15 15 13 6 8 9 14
-1 -0 -0 -0 0 -0 -1 -1 -1 0 1 0 -1 -3 1 3 3 5 5 7 11 11 11 10 12 12 14 13 14 13 14 11 10 11 12 10 11 14 14 9 7 12 11 12
-0 -0 -0 -0 0 0 -1 -1 -1 -1 -0 -0 -0 -2 -0 1 4 4 5 4 8 8 10 10 10 11 10 11 14 15 14 13 13 13 14 11 10 12 14 12 12 11 11 8
-1 -0 -0 0 0 0 -1 -1 -1 1 -1 -1 -1 1 1 2 3 4 6 5 4 9 7 9 9 9 9 8 8 12 13 11 12 13 10 12 15 14 13 13 13 12 14 11
-0 -0 0 0 0 -0 -1 -1 -1 -1 -1 0 -0 0 1 2 2 3 5 5 6 6 9 9 7 10 8 9 7 9 7 9 11 11 8 9 10 12 14 14 14 14 14 12
-0 -0 0 0 0 -1 -1 -1 -1 -0 1 0 -0 0 1 2 3 4 6 6 5 6 8 9 9 11 6 7 8 6 7 8 8 10 7 7 8 9 12 13 14 14 13 13
0 0 0 0 -0 -1 -1 -1 -1 -1 -0 0 1 2 1 2 3 4 5 6 6 8 8 9 7 4 4 5 5 6 5 8 6 5 6 8 10 10 11 12 13 13 11 11
-0 -0 -0 -0 -0 -1 -1 -1 -1 -1 1 1 1 1 2 2 3 4 5 6 8 7 8 4 4 4 4 2 2 5 5 6 4 5 6 8 8 7 9 10 11 11 11 9
-0 0 0 -0 -1 -0 -1 -1 -1 -1 -0 0 3 2 2 1 2 2 4 6 7 6 3 3 4 5 7 4 3 2 4 5 6 4 6 7 8 7 9 10 9 8 9 9
-0 -0 -0 -0 -1 -0 -0 -0 -0 -1 -0 1 3 2 2 3 3 3 4 3 4 5 4 4 5 4 4 4 4 4 4 4 6 4 5 5 5 7 10 8 8 9 10 9
-1 -1 -1 -1 -0 -0 -0 0 0 -1 -0 0 2 3 4 4 3 3 2 2 1 1 4 6 3 3 4 4 5 4 5 5 5 4 4 7 6 8 8 7 6 8 9 7
-1 -1 -1 -0 -0 -0 1 1 1 -0 -0 0 2 3 4 5 5 6 2 4 2 3 3 2 2 2 2 4 4 4 5 5 4 6 6 5 7 7 8 10 8 8 8 7
-0 -1 -1 -0 -0 0 1 0 1 -0 -0 1 2 2 3 4 6 6 4 3 4 3 4 2 2 3 2 2 2 2 3 5 3 5 4 5 7 8 9 9 9 9 9 8
0 0 -0 -0 -0 -0 0 0 0 1 1 1 1 2 3 4 4 5 5 6 4 5 5 1 1 2 2 2 3 3 3 4 4 3 4 5 5 7 8 8 8 8 8 8
1 0 0 -0 0 -0 -0 1 0 0 2 0 -0 1 1 3 3 3 3 4 5 4 2 1 1 1 1 1 2 2 4 3 5 4 4 4 5 6 7 7 7 7 7 6
1 1 1 1 -1 0 -0 0 1 0 1 1 -0 -1 0 2 2 2 1 1 1 1 0 1 1 3 2 2 3 3 3 5 6 4 5 6 6 6 7 6 6 6 6 6
2 2 2 1 0 -0 -0 -1 -1 0 1 1 -0 0 -0 -0 -0 -0 -0 0 -0 0 -0 -0 0 0 1 1 2 4 4 5 6 6 5 3 5 4 5 6 5 5 5 5
3 3 3 2 1 1 -0 0 1 -0 -0 0 0 -0 -0 -0 -1 -0 -0 -0 -0 -0 -0 -0 0 0 -1 1 3 4 5 5 4 5 7 5 4 4 4 4 4 4 3 3
4 4 4 3 2 2 2 1 2 1 1 -1 -0 1 0 -0 -1 -1 0 1 -0 1 0 0 1 1 1 3 3 4 4 4 2 4 5 3 4 3 3 3 3 3 2 1
4 4 3 3 2 3 3 3 4 3 0 -0 -0 -0 -0 -1 -1 -1 -0 -0 -0 0 -0 -0 0 1 1 2 3 4 4 4 4 2 1 1 1 2 2 3 2 2 1 -0
2 1 2 2 3 3 3 -2 -0 1 0 -0 -1 -1 -0 -1 0 -0 -1 -1 -0 1 0 1 1 2 -0 1 3 4 4 5 5 5 4 4 4 2 1 0 0 -0 -0 -0
1 1 0 1 2 2 -0 -2 0 0 0 -1 -0 -1 -0 0 1 -0 -0 0 1 1 -1 0 1 -1 -1 -0 1 2 2 3 4 3 3 2 1 1 0 -1 -1 -1 -1 -1
2 2 2 1 -3 -4 -1 -1 -0 -1 -1 -0 0 -1 -0 1 1 -1 -1 -0 -1 -1 -2 0 0 -1 -2 -1 -0 0 1 2 2 1 0 -0 -1 -1 -1 -1 -2 -3 -2 -3
1 -1 -4 -4 -5 -2 -1 -1 -2 -2 -1 0 0 -2 -1 -1 -0 -1 -0 -1 -1 -2 -2 1 -1 -1 -3 -2 -1 -1 -2 -1 -1 -2 -2 -2 -2 -3 -3 -4 -4 -3 -3 -4
1 -0 -5 -4 -3 -3 -2 -2 -2 -1 -0 1 0 -1 -1 -2 -2 -1 -0 -1 -2 -0 -2 -2 -2 -2 -2 -2 -2 -2 -3 -3 -4 -4 -4 -4 -4 -4 -5 -5 -5 -6 -5 -4
1 -1 -3 -4 -6 -8 -3 -1 -1 -1 0 1 0 -2 -3 -2 -1 1 -1 1 -0 -1 -3 -2 -2 -3 -2 -2 -2 -3 -3 -4 -5 -5 -5 -5 -5 -5 -6 -6 -5 -5 -5 -5
-0 -5 -2 -2 -4 -5 -2 -1 -1 -1 1 -3 -3 -2 1 -2 -2 0 -1 -2 -2 -5 -3 -2 -2 -1 -1 -2 -2 -3 -3 -4 -5 -5 -5 -6 -6 -6 -6 -5 -5 -5 -6 -5

GFSNW_850_temp_207.txt.gz
Temp
-1 -1 -1 -1 -1 -0 -1 -2 -1 -0 -1 -1 -1 -1 -2 2 3 3 3 4 3 3 4 4 9 9 10 12 12 11 12 12 12 14 16 16 15 14 14 12 12 13 14 15
-1 -1 -1 -1 -1 -1 -1 -2 -1 -1 -1 -1 -1 -3 -2 1 1 2 3 3 2 2 3 4 5 9 11 11 11 11 12 10 10 11 13 11 14 15 15 14 8 12 13 15
-1 -1 -1 -1 -1 -1 -1 -2 -1 -2 -1 -1 -1 -1 -2 -1 1 1 2 3 4 4 3 5 2 3 8 11 11 11 12 11 11 12 13 13 11 13 14 14 12 14 13 16
-1 -1 -1 -1 -1 -0 -1 -1 -1 -0 -1 -1 -1 -0 -1 -1 -0 2 3 2 2 3 3 3 4 5 4 7 11 11 10 10 11 12 14 13 13 13 14 13 13 13 15 16
-1 -0 -0 -0 -0 -0 -1 -2 -1 -2 -1 -0 -0 -0 -0 -0 1 1 1 2 3 3 2 3 3 5 4 3 6 10 10 7 9 9 12 12 12 14 15 15 15 15 16 16
-1 -0 -0 -0 -0 -0 -1 -1 -1 -1 -0 -0 -0 0 0 1 1 1 2 2 3 2 3 4 4 4 4 3 2 2 5 7 7 8 9 9 9 10 12 13 15 15 14 16
-0 -0 0 0 0 -0 -1 -1 -1 -1 -1 -0 0 1 2 1 1 1 3 2 2 3 4 4 3 4 2 3 3 2 4 8 8 9 8 9 10 12 12 12 14 16 16 17
-0 -0 -0 -0 0 0 -1 -1 -1 -1 -1 0 0 0 1 2 2 2 1 2 2 3 3 2 2 2 3 4 4 4 5 8 7 9 9 8 9 9 11 11 12 14 14 15
-1 -0 -0 -0 -0 -0 -1 -1 -1 -1 -1 -0 1 1 2 1 1 1 1 1 2 2 2 1 2 4 6 6 5 4 7 9 9 6 9 10 12 10 12 13 10 14 14 14
-1 -1 -1 -1 -1 -0 -1 -1 -1 -1 -1 -1 0 0 0 1 1 1 1 -0 0 1 1 1 2 4 7 7 7 6 7 7 8 7 8 8 9 9 11 9 12 13 13 14
-0 -0 -0 0 0 -1 -1 -1 -1 -1 -1 -1 -0 -0 1 0 0 0 1 1 1 0 1 2 3 5 5 5 5 6 6 6 7 7 8 9 9 9 11 11 9 10 12 13
-0 0 0 0 0 -1 -1 -1 -0 -1 -1 -1 -0 0 1 1 1 1 1 2 1 2 3 2 3 4 3 5 7 3 6 7 6 8 9 7 9 8 10 10 11 10 11 11
-0 0 1 0 0 -0 -1 -1 -0 -1 -1 -1 -2 -1 -0 -0 -0 0 0 1 3 3 3 2 3 3 4 6 7 5 5 5 6 7 7 7 8 7 9 10 11 10 12 10
0 1 1 1 1 0 -0 -1 -1 -1 -1 -0 1 1 -1 0 -0 -1 -0 2 3 3 3 2 3 3 2 4 4 5 5 5 4 5 5 6 6 7 8 9 9 9 8 9
1 1 2 2 1 1 -0 -1 -1 -1 -1 0 -0 0 0 1 1 -0 -0 1 2 2 2 2 3 1 1 1 2 4 4 5 5 6 7 6 6 7 8 8 8 8 9 6
2 2 2 2 1 1 -0 -1 -1 -1 -1 -1 1 -0 -1 1 1 0 0 1 1 1 1 2 1 1 3 3 4 6 4 4 5 6 5 6 6 7 8 8 7 7 8 9
2 2 2 2 1 1 1 -1 -1 -1 -1 -1 1 0 -1 -0 1 0 -0 0 0 -0 0 1 1 1 2 2 4 5 4 4 5 6 6 4 5 4 6 7 7 8 7 7
3 3 3 3 2 1 1 1 -1 -1 -1 -1 1 1 -0 -1 -1 -1 -1 -1 -1 -1 -0 -0 1 0 0 2 3 3 3 4 4 5 6 6 5 4 5 5 6 7 6 7
3 3 3 2 2 2 2 1 1 -1 -1 0 0 1 0 -1 -1 -1 -1 -1 0 -1 1 0 1 1 1 1 1 2 2 3 3 3 4 4 4 3 3 4 6 6 5 5
3 3 2 3 2 2 2 1 1 0 -1 -1 0 -1 -0 -1 -0 -0 0 -0 0 1 0 -1 1 1 1 -1 1 2 3 3 2 1 1 1 1 1 2 4 5 6 5 4
1 1 1 2 2 2 2 -1 0 0 0 -1 -1 -1 -0 -1 0 0 -1 1 0 1 1 1 1 1 0 -1 -0 1 2 2 2 1 2 3 3 4 4 3 4 4 4 3
-1 -1 -1 -1 0 1 -1 -1 1 0 -0 -1 -0 -1 -1 -1 -1 0 0 0 1 1 -0 1 1 0 -1 -2 -1 -1 0 0 2 2 3 4 4 4 4 4 3 2 2 1
0 -1 -1 -1 -3 -4 -2 -3 -0 -0 -1 -1 -1 0 -1 -0 -0 0 1 1 0 0 0 1 2 -0 -2 -2 -0 1 1 2 3 3 3 3 3 3 3 2 1 0 -0 -1
0 -1 -4 -3 -5 -2 -1 -0 -1 -2 -3 -2 -2 -1 -1 -1 0 -1 1 0 0 0 0 2 1 -1 -2 -2 -0 1 0 1 3 3 2 2 2 1 0 -0 -1 -1 -2 -2
-0 -1 -4 -3 -3 -4 -4 -3 -4 -2 -2 -2 -1 -1 -1 0 -1 0 0 0 0 1 1 0 -1 -2 -3 -2 -1 -1 0 1 1 1 1 0 -0 -1 -2 -3 -3 -3 -4 -4
-1 -2 -3 -4 -4 -5 -5 -4 -3 -1 -1 -1 -1 -1 -1 -1 -0 1 0 1 0 1 -1 -3 -2 -3 -3 -2 -2 -1 -1 -1 -1 -1 -2 -2 -2 -3 -3 -4 -5 -5 -5 -5
-1 -3 -4 -3 -5 -5 -3 -2 -1 -1 -1 -0 -1 -1 -0 -1 -0 1 1 0 -0 -3 -3 -3 -3 -3 -3 -2 -2 -2 -2 -2 -2 -3 -3 -3 -4 -4 -4 -5 -6 -6 -6 -6

GFSNW_850_temp_210.txt.gz
Temp
-1 -1 -1 -1 -1 -1 -1 -2 -0 -0 -1 -0 0 1 2 3 4 4 5 5 5 4 5 4 5 6 13 14 13 12 14 14 13 16 19 18 18 17 17 12 12 14 14 16
-1 -1 -1 -1 -1 -1 -1 -2 -1 -1 -1 0 0 1 1 2 3 4 4 4 6 6 4 3 3 4 6 3 5 12 14 11 10 13 15 17 16 17 18 16 12 12 12 14
-1 -1 -1 -1 -1 -1 -1 -2 -0 -2 -1 0 2 1 1 1 2 4 4 4 5 4 3 4 2 4 6 5 4 4 4 9 11 12 14 15 13 16 17 16 12 13 14 16
-1 -1 -1 -1 -0 -1 -1 -2 -0 1 -0 -1 1 2 2 1 1 3 4 4 4 4 3 3 3 5 7 7 7 5 3 8 10 12 15 16 16 16 16 17 15 14 16 18
-0 -0 -0 -0 -0 -1 -1 -1 -1 0 3 3 2 2 1 1 3 3 3 3 4 5 4 5 3 5 6 6 7 4 3 6 9 9 13 14 15 17 17 16 17 17 17 17
-1 -0 -0 -0 -0 -1 -1 -1 -1 -1 2 2 3 3 2 2 4 3 4 4 4 4 5 6 5 6 5 5 4 4 3 3 5 8 11 12 10 13 16 17 17 17 16 18
-0 -0 -0 0 0 -1 -1 -1 -1 -1 1 2 3 3 3 3 3 3 4 4 3 4 4 3 4 4 5 5 5 5 3 4 4 5 7 9 10 14 15 15 16 18 18 19
-0 -0 -0 -0 -0 -0 -1 -1 -1 -1 0 2 3 3 3 3 3 4 4 4 4 3 1 2 2 3 2 3 3 5 3 3 5 6 9 11 13 13 13 13 14 17 17 18
-1 -1 -0 -0 -0 -0 -1 -1 -1 -1 -1 1 2 3 3 2 2 2 3 3 3 1 1 1 2 3 6 6 4 6 6 5 5 5 6 10 15 17 16 15 11 16 17 17
-1 -1 -0 -0 -0 -0 -1 -1 -1 -1 -1 -1 1 2 2 2 2 2 4 2 2 1 1 2 3 4 6 5 7 7 5 5 5 5 6 12 17 16 15 10 13 15 15 16
-0 -0 -0 0 0 0 -1 -1 -1 -1 -1 -1 -0 1 0 2 1 1 3 2 1 1 2 2 4 4 6 6 8 8 7 6 7 6 7 8 13 13 13 13 12 15 14 14
-0 -0 0 0 0 -0 -1 -1 -1 -1 -1 -1 -1 -0 0 1 1 1 1 2 4 3 3 4 5 5 6 6 6 7 7 6 8 6 7 8 12 14 13 10 12 12 14 14
0 0 1 1 1 1 0 -1 -1 -1 -1 -1 -1 -1 1 -0 -1 -1 -0 0 2 1 4 4 5 5 8 7 8 9 8 6 7 6 7 6 6 10 9 9 9 10 11 11
1 1 1 1 1 1 1 -0 -0 -1 -1 -0 2 1 0 1 -1 -1 -1 -1 2 3 3 3 3 4 3 6 6 8 9 8 8 8 8 8 7 8 7 7 8 9 8 9
1 1 1 2 2 1 0 0 -1 -1 -1 1 1 0 0 0 0 -0 -1 -1 -0 1 2 2 3 5 4 4 3 5 7 9 8 10 10 8 9 8 8 8 8 7 7 7
1 2 2 2 2 1 -0 -1 -1 -1 -1 -1 2 0 -0 -0 0 0 -0 -0 -0 0 1 2 3 5 5 5 6 9 8 8 8 9 8 8 8 8 8 8 9 7 7 7
1 2 2 3 2 1 -0 1 1 -0 -1 -1 2 2 -0 -0 0 0 0 -0 -0 0 1 1 3 3 3 4 6 10 8 7 7 7 7 6 6 8 7 7 6 8 6 6
1 2 3 3 2 1 -0 1 1 -0 -1 -1 2 3 1 -1 -1 -0 -1 -1 -1 -1 1 0 2 2 3 4 8 8 7 6 6 6 7 8 7 6 5 5 6 5 5 5
2 3 3 2 1 1 1 1 -0 -1 -1 1 1 2 3 -1 -1 -1 -1 -1 1 -0 2 2 1 3 4 6 6 5 6 6 7 6 6 6 6 6 6 6 6 5 4 4
2 2 1 2 1 2 2 -0 -0 -0 -1 -1 2 1 2 -0 1 1 1 0 2 2 2 0 2 4 4 3 3 3 4 5 5 5 6 6 5 5 6 6 5 4 4 4
-0 0 0 1 1 1 1 1 3 1 1 2 0 -0 1 -0 2 2 1 2 3 3 3 3 4 5 3 1 0 1 2 4 4 4 4 4 4 4 4 3 4 5 6 5
-3 -3 -2 -2 -1 2 2 2 3 2 2 1 1 1 0 -0 -1 1 1 2 3 3 4 3 4 3 1 -0 -1 -1 0 0 1 1 1 1 1 2 2 1 2 4 6 5
-1 -2 -1 0 1 1 1 1 2 2 1 1 1 1 1 1 1 2 3 2 3 3 2 4 4 2 1 -1 -1 -1 -0 -0 0 -0 0 1 1 2 5 5 4 3 3 2
-1 1 1 1 1 2 3 3 2 1 0 1 1 2 2 2 2 2 2 2 3 2 2 3 3 2 0 -1 -1 -0 -0 0 -0 1 1 2 3 3 2 2 2 1 1 -0
0 1 1 1 2 0 0 -1 -1 -0 -0 1 2 2 2 3 2 2 2 2 2 3 3 3 2 1 -0 -1 -2 -2 -2 -1 -0 -1 0 1 1 1 0 -0 -0 -0 -0 -0
-1 0 0 -1 -0 0 -2 -1 0 0 -2 -0 1 3 2 2 2 3 2 3 3 3 2 -1 -1 -1 -1 -1 -2 -1 -1 -1 -1 -0 -0 -1 -1 -1 -1 -2 -2 -2 -2 -2
1 0 -3 -0 -1 2 0 0 1 -1 1 2 3 2 3 3 3 3 3 3 3 0 -2 -2 -2 -2 -2 -3 -2 -2 -2 -3 -2 -2 -2 -2 -2 -3 -3 -4 -4 -4 -5 -5

GFSNW_850_temp_216.txt.gz
Temp
-0 -0 -0 -0 -0 -0 -0 -0 0 1 1 1 1 2 3 5 6 6 7 6 7 7 7 7 6 4 4 6 3 4 4 6 9 11 17 18 18 18 19 15 14 15 15 15
0 -0 -0 -0 -0 -0 -0 -0 -0 1 -0 1 2 2 3 5 5 6 6 6 7 7 7 5 6 6 4 2 2 2 2 3 6 10 12 15 15 16 17 17 16 12 12 14
0 0 -0 -0 -0 -0 -1 -1 0 -1 -0 1 3 3 2 2 4 5 6 6 7 6 6 7 5 5 7 7 4 4 2 4 4 5 7 6 8 14 17 15 11 13 15 16
0 0 -0 -0 -0 -0 -1 -1 0 2 2 0 2 3 3 3 3 5 5 5 5 5 4 4 5 6 7 8 9 7 3 3 5 5 6 7 8 11 13 16 15 11 12 15
-0 -0 0 0 -0 -1 -1 -1 0 2 3 3 4 3 3 3 4 5 4 4 6 6 5 6 4 6 6 6 7 4 2 3 5 4 7 8 6 7 9 12 15 18 17 15
-0 -0 -0 -0 -0 -1 -1 -1 0 -0 2 3 3 4 4 2 5 5 6 6 6 5 6 7 7 6 6 6 6 5 3 3 4 4 7 5 4 9 11 12 14 16 17 18
-0 -0 -0 -0 -0 -0 -1 -1 -0 -0 2 3 3 4 5 5 6 4 4 5 4 6 6 6 6 6 6 7 7 7 4 4 4 4 5 4 8 12 11 13 15 17 18 20
-1 -1 -0 -0 -0 -0 -1 -0 -1 -1 1 3 3 4 5 5 5 6 6 6 6 6 2 2 2 3 3 3 4 6 6 5 4 3 4 6 7 10 11 13 13 17 17 17
-0 -0 -0 -0 -0 -1 -1 -0 -0 -1 -0 1 3 4 3 3 3 4 4 4 4 4 4 2 2 3 4 5 6 7 6 6 4 4 3 4 9 11 13 14 9 12 16 18
-1 -0 -0 -0 -0 -0 -1 -1 -1 -1 -1 -0 1 2 2 3 3 2 3 4 4 3 2 2 2 3 5 4 5 5 6 5 3 3 4 7 10 12 12 8 10 13 11 15
-1 -0 -0 -0 -0 -0 -1 -0 -1 -1 -1 -1 -0 1 2 2 2 1 3 2 2 2 2 2 3 3 5 5 6 6 6 6 5 4 3 4 10 12 11 12 9 9 9 13
-1 -1 -0 -0 -0 -0 -1 -1 -1 -1 -1 -1 -0 0 0 0 1 1 0 1 2 2 2 3 5 4 5 6 5 8 6 7 6 4 6 10 11 12 10 9 8 9 8 8
-1 -1 -0 -0 -0 -0 -1 -1 -2 -1 -1 -1 -1 -0 2 1 1 2 0 0 0 1 2 2 3 3 6 5 6 6 8 9 7 7 8 8 9 11 10 10 9 9 10 8
-1 -1 -1 -0 -0 -0 -1 -2 -1 -1 -1 -1 1 2 2 3 2 1 0 -0 -0 0 1 1 2 3 6 5 5 4 6 5 4 5 8 7 6 11 11 11 10 8 8 9
-1 -0 -0 -1 -1 -1 -1 -1 0 -0 -1 1 1 1 3 3 2 2 1 1 -0 -0 -0 1 2 4 4 4 5 5 6 6 6 5 8 8 9 11 11 10 9 7 6 6
-1 -1 -0 -0 -1 -1 -2 -1 2 1 0 -1 0 3 3 4 2 3 1 1 1 -1 -0 1 3 4 4 3 5 8 9 9 6 6 7 6 7 8 9 8 7 6 6 5
-1 -1 -0 -0 -1 -2 -2 0 1 1 0 -1 -0 3 2 2 1 -0 0 0 -0 -1 -0 1 3 4 2 4 4 7 8 8 8 7 5 5 6 8 8 9 8 7 6 5
-1 -1 -0 0 0 0 -0 2 1 -0 -0 -1 -1 2 3 0 1 1 -0 -1 -1 -0 0 1 3 4 4 3 6 8 8 9 9 7 5 5 4 5 8 9 9 6 5 4
-1 -1 1 1 -0 1 1 2 2 1 0 1 1 2 3 1 2 1 -1 -1 1 0 1 3 4 4 3 5 7 8 9 8 7 7 5 7 7 7 9 9 9 8 7 5
-0 -0 1 0 1 1 1 0 1 -0 -0 -0 1 3 3 2 3 2 2 0 2 3 2 4 3 4 6 7 7 7 7 6 7 7 8 8 9 9 9 8 8 8 7 7
-0 0 0 -0 0 1 3 2 2 2 2 0 1 3 2 2 2 2 1 2 3 4 4 4 4 6 6 6 6 5 3 3 4 5 6 7 8 9 8 7 7 7 6 6
-3 -3 -2 -2 -0 2 3 3 5 6 5 5 5 4 3 2 1 1 2 3 3 4 3 3 5 2 4 3 0 -0 0 2 2 3 4 6 7 5 5 5 5 5 5 5
-3 -3 -2 -1 1 1 2 3 4 5 6 5 5 4 3 2 2 1 2 2 3 5 3 5 4 3 1 0 -0 -0 -0 0 1 1 3 3 3 3 4 4 3 3 3 3
-0 1 -0 2 3 3 4 5 6 7 6 5 5 5 4 3 2 1 1 2 4 3 4 5 3 2 -0 -0 0 0 -1 -1 -1 -0 -0 -0 0 1 1 2 2 2 2 2
0 2 2 3 5 5 6 6 6 5 5 5 5 4 4 4 2 3 3 2 3 4 4 3 1 1 -0 -1 -1 -1 -1 -1 -1 -1 -1 -1 -1 -1 -1 -0 0 1 1 1
-0 1 3 4 5 2 2 2 4 4 4 4 4 4 4 4 4 3 3 3 4 4 3 2 1 -0 -1 -1 -1 -1 -1 -2 -2 -2 -1 -1 -1 -1 -1 -1 -1 -0 2 2
1 2 2 3 3 2 1 2 2 4 4 4 4 3 4 5 4 4 5 5 4 2 0 0 0 -0 -1 -1 -1 -2 -2 -2 -3 -3 -3 -2 -2 -2 -2 -1 -1 -1 -0 -0